Wetterdaten: Samstag, 03.11.2012
Datum Zeit Temperatur Luftfeuchte Luftdruck Regen Wind Richtung Richtung Sonnenschein ET UV Solar Taupunkt Windchill Windben
03.11.2012 00:00 6,2 C 91 % 1001,0 hPa 0,0 l/m 2,6 km/h (1 Bft) W-NW 295 0 min 0,000 mm 0,0 UV-I 0 W/m 4,8 C 6,2 C 6,4 km/h (2 Bft)
03.11.2012 00:05 6,2 C 91 % 1001,0 hPa 0,0 l/m 1,5 km/h (1 Bft) W-NW 295 0 min 0,000 mm 0,0 UV-I 0 W/m 4,8 C 6,2 C 3,2 km/h (1 Bft)
03.11.2012 00:10 6,1 C 91 % 1001,0 hPa 0,0 l/m 1,2 km/h (1 Bft) W-NW 295 0 min 0,000 mm 0,0 UV-I 0 W/m 4,7 C 6,1 C 3,2 km/h (1 Bft)
03.11.2012 00:15 6,0 C 91 % 1001,2 hPa 0,0 l/m 1,4 km/h (1 Bft) W-NW 295 0 min 0,000 mm 0,0 UV-I 0 W/m 4,6 C 6,0 C 4,8 km/h (1 Bft)
03.11.2012 00:20 5,9 C 91 % 1001,3 hPa 0,0 l/m 0,6 km/h (0 Bft) W-NW 295 0 min 0,000 mm 0,0 UV-I 0 W/m 4,5 C 5,9 C 3,2 km/h (1 Bft)
03.11.2012 00:25 5,9 C 91 % 1001,3 hPa 0,0 l/m 1,0 km/h (0 Bft) W-NW 295 0 min 0,000 mm 0,0 UV-I 0 W/m 4,5 C 5,9 C 3,2 km/h (1 Bft)
03.11.2012 00:30 5,9 C 92 % 1001,4 hPa 0,0 l/m 2,5 km/h (1 Bft) SW 222 0 min 0,000 mm 0,0 UV-I 0 W/m 4,7 C 5,9 C 6,4 km/h (2 Bft)
03.11.2012 00:35 5,9 C 92 % 1001,5 hPa 0,0 l/m 1,2 km/h (1 Bft) W-SW 244 0 min 0,000 mm 0,0 UV-I 0 W/m 4,7 C 5,9 C 6,4 km/h (2 Bft)
03.11.2012 00:40 5,8 C 91 % 1001,5 hPa 0,0 l/m 0,1 km/h (0 Bft) W-SW 244 0 min 0,000 mm 0,0 UV-I 0 W/m 4,4 C 5,8 C 1,6 km/h (1 Bft)
03.11.2012 00:45 5,7 C 91 % 1001,6 hPa 0,0 l/m 2,1 km/h (1 Bft) W 266 0 min 0,000 mm 0,0 UV-I 0 W/m 4,3 C 5,7 C 11,3 km/h (2 Bft)
03.11.2012 00:50 5,7 C 91 % 1001,8 hPa 0,0 l/m 5,1 km/h (1 Bft) W 279 0 min 0,000 mm 0,0 UV-I 0 W/m 4,3 C 5,7 C 11,3 km/h (2 Bft)
03.11.2012 00:55 5,8 C 91 % 1001,8 hPa 0,0 l/m 5,2 km/h (1 Bft) W-SW 250 0 min 0,000 mm 0,0 UV-I 0 W/m 4,4 C 5,8 C 9,7 km/h (2 Bft)
03.11.2012 01:00 5,8 C 90 % 1001,9 hPa 0,0 l/m 4,2 km/h (1 Bft) W 260 0 min 0,000 mm 0,0 UV-I 0 W/m 4,3 C 5,8 C 11,3 km/h (2 Bft)
03.11.2012 01:05 5,7 C 90 % 1001,8 hPa 0,0 l/m 5,1 km/h (1 Bft) W-NW 296 0 min 0,000 mm 0,0 UV-I 0 W/m 4,2 C 5,7 C 9,7 km/h (2 Bft)
03.11.2012 01:10 5,6 C 91 % 1001,9 hPa 0,0 l/m 3,3 km/h (1 Bft) W 280 0 min 0,000 mm 0,0 UV-I 0 W/m 4,2 C 5,6 C 8,0 km/h (2 Bft)
03.11.2012 01:15 5,6 C 91 % 1001,9 hPa 0,0 l/m 3,6 km/h (1 Bft) W 259 0 min 0,000 mm 0,0 UV-I 0 W/m 4,2 C 5,6 C 8,0 km/h (2 Bft)
03.11.2012 01:20 5,5 C 91 % 1002,0 hPa 0,0 l/m 4,9 km/h (1 Bft) W 261 0 min 0,000 mm 0,0 UV-I 0 W/m 4,2 C 5,5 C 8,0 km/h (2 Bft)
03.11.2012 01:25 5,5 C 91 % 1002,0 hPa 0,0 l/m 3,8 km/h (1 Bft) W 262 0 min 0,000 mm 0,0 UV-I 0 W/m 4,2 C 5,5 C 8,0 km/h (2 Bft)
03.11.2012 01:30 5,4 C 91 % 1002,1 hPa 0,0 l/m 4,7 km/h (1 Bft) W-NW 289 0 min 0,000 mm 0,0 UV-I 0 W/m 4,1 C 5,4 C 9,7 km/h (2 Bft)
03.11.2012 01:35 5,3 C 91 % 1002,2 hPa 0,0 l/m 4,6 km/h (1 Bft) W 273 0 min 0,000 mm 0,0 UV-I 0 W/m 4,0 C 5,3 C 9,7 km/h (2 Bft)
03.11.2012 01:40 5,3 C 91 % 1002,2 hPa 0,0 l/m 5,3 km/h (1 Bft) W 267 0 min 0,000 mm 0,0 UV-I 0 W/m 4,0 C 5,3 C 8,0 km/h (2 Bft)
03.11.2012 01:45 5,3 C 91 % 1002,2 hPa 0,0 l/m 5,9 km/h (2 Bft) W-SW 257 0 min 0,000 mm 0,0 UV-I 0 W/m 4,0 C 5,3 C 9,7 km/h (2 Bft)
03.11.2012 01:50 5,3 C 91 % 1002,3 hPa 0,0 l/m 7,3 km/h (2 Bft) W-SW 250 0 min 0,000 mm 0,0 UV-I 0 W/m 4,0 C 4,5 C 12,9 km/h (3 Bft)
03.11.2012 01:55 5,3 C 91 % 1002,4 hPa 0,0 l/m 5,5 km/h (1 Bft) W-NW 299 0 min 0,000 mm 0,0 UV-I 0 W/m 4,0 C 5,3 C 11,3 km/h (2 Bft)
03.11.2012 02:00 5,2 C 91 % 1002,4 hPa 0,0 l/m 4,9 km/h (1 Bft) W 261 0 min 0,000 mm 0,0 UV-I 0 W/m 3,9 C 5,2 C 11,3 km/h (2 Bft)
03.11.2012 02:05 5,1 C 91 % 1002,6 hPa 0,0 l/m 1,9 km/h (1 Bft) W-SW 240 0 min 0,000 mm 0,0 UV-I 0 W/m 3,8 C 5,1 C 6,4 km/h (2 Bft)
03.11.2012 02:10 4,9 C 91 % 1002,6 hPa 0,0 l/m 1,8 km/h (1 Bft) W 273 0 min 0,000 mm 0,0 UV-I 0 W/m 3,6 C 4,9 C 4,8 km/h (1 Bft)
03.11.2012 02:15 4,8 C 92 % 1002,7 hPa 0,0 l/m 1,9 km/h (1 Bft) SW 234 0 min 0,000 mm 0,0 UV-I 0 W/m 3,6 C 4,8 C 4,8 km/h (1 Bft)
03.11.2012 02:20 4,8 C 92 % 1002,6 hPa 0,0 l/m 0,8 km/h (0 Bft) W-NW 294 0 min 0,000 mm 0,0 UV-I 0 W/m 3,6 C 4,8 C 4,8 km/h (1 Bft)
03.11.2012 02:25 4,7 C 92 % 1002,5 hPa 0,0 l/m 1,6 km/h (1 Bft) W-NW 292 0 min 0,000 mm 0,0 UV-I 0 W/m 3,5 C 4,7 C 4,8 km/h (1 Bft)
03.11.2012 02:30 4,8 C 92 % 1002,6 hPa 0,0 l/m 1,5 km/h (1 Bft) W-SW 256 0 min 0,000 mm 0,0 UV-I 0 W/m 3,6 C 4,8 C 4,8 km/h (1 Bft)
03.11.2012 02:35 4,8 C 92 % 1002,6 hPa 0,0 l/m 2,2 km/h (1 Bft) W-SW 246 0 min 0,000 mm 0,0 UV-I 0 W/m 3,6 C 4,8 C 8,0 km/h (2 Bft)
03.11.2012 02:40 4,8 C 92 % 1002,6 hPa 0,0 l/m 1,5 km/h (1 Bft) SW 220 0 min 0,000 mm 0,0 UV-I 0 W/m 3,6 C 4,8 C 6,4 km/h (2 Bft)
03.11.2012 02:45 4,9 C 92 % 1002,5 hPa 0,0 l/m 1,3 km/h (1 Bft) W-SW 257 0 min 0,000 mm 0,0 UV-I 0 W/m 3,7 C 4,9 C 4,8 km/h (1 Bft)
03.11.2012 02:50 4,9 C 92 % 1002,5 hPa 0,0 l/m 0,7 km/h (0 Bft) S 180 0 min 0,000 mm 0,0 UV-I 0 W/m 3,7 C 4,9 C 4,8 km/h (1 Bft)
03.11.2012 02:55 4,8 C 92 % 1002,6 hPa 0,0 l/m 0,6 km/h (0 Bft) SW 235 0 min 0,000 mm 0,0 UV-I 0 W/m 3,6 C 4,8 C 3,2 km/h (1 Bft)
03.11.2012 03:00 4,8 C 92 % 1002,6 hPa 0,0 l/m 0,8 km/h (0 Bft) W 263 0 min 0,000 mm 0,0 UV-I 0 W/m 3,6 C 4,8 C 4,8 km/h (1 Bft)
03.11.2012 03:05 4,8 C 92 % 1002,7 hPa 0,0 l/m 0,4 km/h (0 Bft) W-SW 248 0 min 0,000 mm 0,0 UV-I 0 W/m 3,6 C 4,8 C 3,2 km/h (1 Bft)
03.11.2012 03:10 4,8 C 92 % 1003,0 hPa 0,0 l/m 1,4 km/h (1 Bft) S-SO 163 0 min 0,000 mm 0,0 UV-I 0 W/m 3,6 C 4,8 C 6,4 km/h (2 Bft)
03.11.2012 03:15 4,8 C 92 % 1003,0 hPa 0,0 l/m 3,0 km/h (1 Bft) S-SW 199 0 min 0,000 mm 0,0 UV-I 0 W/m 3,6 C 4,8 C 11,3 km/h (2 Bft)
03.11.2012 03:20 4,8 C 92 % 1003,0 hPa 0,0 l/m 1,8 km/h (1 Bft) W-SW 242 0 min 0,000 mm 0,0 UV-I 0 W/m 3,6 C 4,8 C 9,7 km/h (2 Bft)
03.11.2012 03:25 4,9 C 92 % 1003,0 hPa 0,0 l/m 2,1 km/h (1 Bft) W-SW 252 0 min 0,000 mm 0,0 UV-I 0 W/m 3,7 C 4,9 C 6,4 km/h (2 Bft)
03.11.2012 03:30 4,9 C 92 % 1003,0 hPa 0,0 l/m 2,4 km/h (1 Bft) SW 222 0 min 0,000 mm 0,0 UV-I 0 W/m 3,7 C 4,9 C 8,0 km/h (2 Bft)
03.11.2012 03:35 4,9 C 92 % 1003,0 hPa 0,0 l/m 1,7 km/h (1 Bft) W-SW 237 0 min 0,000 mm 0,0 UV-I 0 W/m 3,7 C 4,9 C 4,8 km/h (1 Bft)
03.11.2012 03:40 5,0 C 91 % 1003,0 hPa 0,0 l/m 4,6 km/h (1 Bft) W-SW 250 0 min 0,000 mm 0,0 UV-I 0 W/m 3,7 C 5,0 C 9,7 km/h (2 Bft)
03.11.2012 03:45 5,1 C 91 % 1003,0 hPa 0,0 l/m 6,4 km/h (2 Bft) W-NW 286 0 min 0,000 mm 0,0 UV-I 0 W/m 3,8 C 5,1 C 12,9 km/h (3 Bft)
03.11.2012 03:50 5,2 C 91 % 1002,9 hPa 0,0 l/m 3,5 km/h (1 Bft) W 281 0 min 0,000 mm 0,0 UV-I 0 W/m 3,9 C 5,2 C 8,0 km/h (2 Bft)
03.11.2012 03:55 5,1 C 91 % 1002,9 hPa 0,0 l/m 3,9 km/h (1 Bft) W-NW 301 0 min 0,000 mm 0,0 UV-I 0 W/m 3,8 C 5,1 C 9,7 km/h (2 Bft)
03.11.2012 04:00 5,1 C 90 % 1002,8 hPa 0,0 l/m 3,0 km/h (1 Bft) W 275 0 min 0,000 mm 0,0 UV-I 0 W/m 3,6 C 5,1 C 6,4 km/h (2 Bft)
03.11.2012 04:05 5,1 C 90 % 1002,8 hPa 0,0 l/m 1,3 km/h (1 Bft) W-SW 241 0 min 0,000 mm 0,0 UV-I 0 W/m 3,6 C 5,1 C 3,2 km/h (1 Bft)
03.11.2012 04:10 5,1 C 90 % 1002,6 hPa 0,0 l/m 0,8 km/h (0 Bft) W 281 0 min 0,000 mm 0,0 UV-I 0 W/m 3,6 C 5,1 C 3,2 km/h (1 Bft)
03.11.2012 04:15 5,1 C 90 % 1002,9 hPa 0,0 l/m 3,2 km/h (1 Bft) S 176 0 min 0,000 mm 0,0 UV-I 0 W/m 3,6 C 5,1 C 8,0 km/h (2 Bft)
03.11.2012 04:20 5,0 C 90 % 1002,9 hPa 0,0 l/m 2,7 km/h (1 Bft) S 173 0 min 0,000 mm 0,0 UV-I 0 W/m 3,5 C 5,0 C 8,0 km/h (2 Bft)
03.11.2012 04:25 5,1 C 90 % 1003,0 hPa 0,0 l/m 2,5 km/h (1 Bft) W-SW 256 0 min 0,000 mm 0,0 UV-I 0 W/m 3,6 C 5,1 C 8,0 km/h (2 Bft)
03.11.2012 04:30 5,1 C 90 % 1003,0 hPa 0,0 l/m 1,4 km/h (1 Bft) W 260 0 min 0,000 mm 0,0 UV-I 0 W/m 3,6 C 5,1 C 4,8 km/h (1 Bft)
03.11.2012 04:35 5,1 C 90 % 1003,3 hPa 0,0 l/m 3,0 km/h (1 Bft) W-SW 238 0 min 0,000 mm 0,0 UV-I 0 W/m 3,6 C 5,1 C 9,7 km/h (2 Bft)
03.11.2012 04:40 5,1 C 90 % 1003,4 hPa 0,0 l/m 2,2 km/h (1 Bft) W-NW 285 0 min 0,000 mm 0,0 UV-I 0 W/m 3,6 C 5,1 C 8,0 km/h (2 Bft)
03.11.2012 04:45 5,1 C 90 % 1003,2 hPa 0,0 l/m 2,1 km/h (1 Bft) W-NW 283 0 min 0,000 mm 0,0 UV-I 0 W/m 3,6 C 5,1 C 6,4 km/h (2 Bft)
03.11.2012 04:50 5,2 C 89 % 1003,0 hPa 0,0 l/m 4,8 km/h (1 Bft) W-NW 300 0 min 0,000 mm 0,0 UV-I 0 W/m 3,5 C 5,2 C 11,3 km/h (2 Bft)
03.11.2012 04:55 5,3 C 88 % 1003,0 hPa 0,0 l/m 3,1 km/h (1 Bft) W-SW 240 0 min 0,000 mm 0,0 UV-I 0 W/m 3,5 C 5,3 C 14,5 km/h (3 Bft)
03.11.2012 05:00 5,3 C 89 % 1003,2 hPa 0,0 l/m 2,7 km/h (1 Bft) W 262 0 min 0,000 mm 0,0 UV-I 0 W/m 3,6 C 5,3 C 11,3 km/h (2 Bft)
03.11.2012 05:05 5,3 C 88 % 1003,1 hPa 0,0 l/m 2,9 km/h (1 Bft) O-SO 111 0 min 0,000 mm 0,0 UV-I 0 W/m 3,5 C 5,3 C 9,7 km/h (2 Bft)
03.11.2012 05:10 5,2 C 88 % 1003,1 hPa 0,0 l/m 2,8 km/h (1 Bft) SW 236 0 min 0,000 mm 0,0 UV-I 0 W/m 3,4 C 5,2 C 8,0 km/h (2 Bft)
03.11.2012 05:15 5,2 C 88 % 1003,1 hPa 0,0 l/m 1,7 km/h (1 Bft) N-NW 348 0 min 0,000 mm 0,0 UV-I 0 W/m 3,4 C 5,2 C 8,0 km/h (2 Bft)
03.11.2012 05:20 5,2 C 88 % 1003,0 hPa 0,0 l/m 1,5 km/h (1 Bft) N-NW 333 0 min 0,000 mm 0,0 UV-I 0 W/m 3,4 C 5,2 C 6,4 km/h (2 Bft)
03.11.2012 05:25 5,2 C 89 % 1003,0 hPa 0,0 l/m 2,9 km/h (1 Bft) NO 49 0 min 0,000 mm 0,0 UV-I 0 W/m 3,5 C 5,2 C 11,3 km/h (2 Bft)
03.11.2012 05:30 5,1 C 89 % 1003,0 hPa 0,0 l/m 0,5 km/h (0 Bft) O-SO 105 0 min 0,000 mm 0,0 UV-I 0 W/m 3,4 C 5,1 C 3,2 km/h (1 Bft)
03.11.2012 05:35 5,1 C 89 % 1003,1 hPa 0,0 l/m 0,6 km/h (0 Bft) NO 47 0 min 0,000 mm 0,0 UV-I 0 W/m 3,4 C 5,1 C 6,4 km/h (2 Bft)
03.11.2012 05:40 5,0 C 90 % 1003,2 hPa 0,0 l/m 1,5 km/h (1 Bft) O-SO 104 0 min 0,000 mm 0,0 UV-I 0 W/m 3,5 C 5,0 C 4,8 km/h (1 Bft)
03.11.2012 05:45 4,9 C 90 % 1003,2 hPa 0,0 l/m 2,5 km/h (1 Bft) O-SO 115 0 min 0,000 mm 0,0 UV-I 0 W/m 3,4 C 4,9 C 8,0 km/h (2 Bft)
03.11.2012 05:50 5,0 C 90 % 1003,3 hPa 0,0 l/m 4,6 km/h (1 Bft) SO 138 0 min 0,000 mm 0,0 UV-I 0 W/m 3,5 C 5,0 C 9,7 km/h (2 Bft)
03.11.2012 05:55 5,1 C 90 % 1003,2 hPa 0,0 l/m 3,5 km/h (1 Bft) O-SO 123 0 min 0,000 mm 0,0 UV-I 0 W/m 3,6 C 5,1 C 8,0 km/h (2 Bft)
03.11.2012 06:00 5,2 C 90 % 1003,1 hPa 0,0 l/m 3,1 km/h (1 Bft) SO 140 0 min 0,000 mm 0,0 UV-I 0 W/m 3,7 C 5,2 C 8,0 km/h (2 Bft)
03.11.2012 06:05 5,2 C 89 % 1002,9 hPa 0,0 l/m 3,3 km/h (1 Bft) S 177 0 min 0,000 mm 0,0 UV-I 0 W/m 3,5 C 5,2 C 8,0 km/h (2 Bft)
03.11.2012 06:10 5,2 C 90 % 1002,7 hPa 0,0 l/m 2,2 km/h (1 Bft) O-SO 105 0 min 0,000 mm 0,0 UV-I 0 W/m 3,7 C 5,2 C 8,0 km/h (2 Bft)
03.11.2012 06:15 5,2 C 90 % 1002,6 hPa 0,0 l/m 3,1 km/h (1 Bft) SO 146 0 min 0,000 mm 0,0 UV-I 0 W/m 3,7 C 5,2 C 9,7 km/h (2 Bft)
03.11.2012 06:20 5,2 C 90 % 1002,4 hPa 0,0 l/m 2,6 km/h (1 Bft) O 94 0 min 0,000 mm 0,0 UV-I 0 W/m 3,7 C 5,2 C 9,7 km/h (2 Bft)
03.11.2012 06:25 5,3 C 90 % 1002,2 hPa 0,0 l/m 4,7 km/h (1 Bft) O 79 0 min 0,000 mm 0,0 UV-I 0 W/m 3,8 C 5,3 C 11,3 km/h (2 Bft)
03.11.2012 06:30 5,3 C 90 % 1002,2 hPa 0,0 l/m 2,3 km/h (1 Bft) O-NO 60 0 min 0,000 mm 0,0 UV-I 0 W/m 3,8 C 5,3 C 6,4 km/h (2 Bft)
03.11.2012 06:35 5,2 C 90 % 1002,3 hPa 0,0 l/m 1,9 km/h (1 Bft) O-SO 107 0 min 0,000 mm 0,0 UV-I 0 W/m 3,7 C 5,2 C 8,0 km/h (2 Bft)
03.11.2012 06:40 5,2 C 90 % 1002,5 hPa 0,0 l/m 0,7 km/h (0 Bft) SO 138 0 min 0,000 mm 0,0 UV-I 0 W/m 3,7 C 5,2 C 3,2 km/h (1 Bft)
03.11.2012 06:45 5,2 C 90 % 1002,6 hPa 0,0 l/m 1,1 km/h (1 Bft) O-NO 76 0 min 0,000 mm 0,0 UV-I 0 W/m 3,7 C 5,2 C 3,2 km/h (1 Bft)
03.11.2012 06:50 5,2 C 91 % 1002,6 hPa 0,0 l/m 0,3 km/h (0 Bft) N-NO 28 0 min 0,000 mm 0,0 UV-I 0 W/m 3,9 C 5,2 C 3,2 km/h (1 Bft)
03.11.2012 06:55 5,2 C 91 % 1002,6 hPa 0,0 l/m 1,3 km/h (1 Bft) O-NO 69 0 min 0,000 mm 0,0 UV-I 0 W/m 3,9 C 5,2 C 4,8 km/h (1 Bft)
03.11.2012 07:00 5,2 C 91 % 1002,6 hPa 0,0 l/m 4,1 km/h (1 Bft) O 83 0 min 0,000 mm 0,0 UV-I 0 W/m 3,9 C 5,2 C 9,7 km/h (2 Bft)
03.11.2012 07:05 5,3 C 91 % 1002,7 hPa 0,0 l/m 1,6 km/h (1 Bft) O-SO 102 0 min 0,000 mm 0,0 UV-I 0 W/m 4,0 C 5,3 C 3,2 km/h (1 Bft)
03.11.2012 07:10 5,3 C 91 % 1002,8 hPa 0,0 l/m 3,0 km/h (1 Bft) O-SO 111 0 min 0,000 mm 0,0 UV-I 0 W/m 4,0 C 5,3 C 6,4 km/h (2 Bft)
03.11.2012 07:15 5,3 C 91 % 1002,8 hPa 0,0 l/m 2,5 km/h (1 Bft) O-NO 62 0 min 0,000 mm 0,0 UV-I 0 W/m 4,0 C 5,3 C 4,8 km/h (1 Bft)
03.11.2012 07:20 5,3 C 91 % 1002,9 hPa 0,0 l/m 1,1 km/h (1 Bft) NO 53 0 min 0,000 mm 0,0 UV-I 0 W/m 4,0 C 5,3 C 4,8 km/h (1 Bft)
03.11.2012 07:25 5,4 C 91 % 1002,8 hPa 0,0 l/m 2,3 km/h (1 Bft) O-NO 67 0 min 0,000 mm 0,0 UV-I 0 W/m 4,1 C 5,4 C 4,8 km/h (1 Bft)
03.11.2012 07:30 5,4 C 91 % 1002,6 hPa 0,0 l/m 2,6 km/h (1 Bft) O-SO 109 0 min 0,000 mm 0,0 UV-I 0 W/m 4,1 C 5,4 C 8,0 km/h (2 Bft)
03.11.2012 07:35 5,4 C 91 % 1002,5 hPa 0,0 l/m 1,3 km/h (1 Bft) SO 144 0 min 0,000 mm 0,0 UV-I 0 W/m 4,1 C 5,4 C 3,2 km/h (1 Bft)
03.11.2012 07:40 5,4 C 91 % 1002,3 hPa 0,0 l/m 1,8 km/h (1 Bft) O-SO 106 0 min 0,000 mm 0,0 UV-I 0 W/m 4,1 C 5,4 C 8,0 km/h (2 Bft)
03.11.2012 07:45 5,6 C 90 % 1002,4 hPa 0,0 l/m 2,6 km/h (1 Bft) O-SO 121 0 min 0,000 mm 0,0 UV-I 5 W/m 4,1 C 5,6 C 6,4 km/h (2 Bft)
03.11.2012 07:50 5,6 C 90 % 1002,4 hPa 0,0 l/m 1,8 km/h (1 Bft) O-NO 71 0 min 0,000 mm 0,0 UV-I 7 W/m 4,1 C 5,6 C 6,4 km/h (2 Bft)
03.11.2012 07:55 5,7 C 90 % 1002,4 hPa 0,0 l/m 1,6 km/h (1 Bft) O-SO 107 0 min 0,000 mm 0,0 UV-I 9 W/m 4,2 C 5,7 C 8,0 km/h (2 Bft)
03.11.2012 08:00 5,7 C 90 % 1002,5 hPa 0,0 l/m 1,5 km/h (1 Bft) O-SO 120 0 min 0,000 mm 0,0 UV-I 5 W/m 4,2 C 5,7 C 3,2 km/h (1 Bft)
03.11.2012 08:05 5,7 C 90 % 1002,2 hPa 0,0 l/m 1,4 km/h (1 Bft) SO 126 0 min 0,000 mm 0,0 UV-I 5 W/m 4,2 C 5,7 C 4,8 km/h (1 Bft)
03.11.2012 08:10 5,7 C 91 % 1002,1 hPa 0,0 l/m 0,5 km/h (0 Bft) S-SW 192 0 min 0,000 mm 0,0 UV-I 9 W/m 4,3 C 5,7 C 4,8 km/h (1 Bft)
03.11.2012 08:15 5,6 C 91 % 1002,2 hPa 0,0 l/m 0,5 km/h (0 Bft) NO 46 0 min 0,000 mm 0,0 UV-I 7 W/m 4,2 C 5,6 C 3,2 km/h (1 Bft)
03.11.2012 08:20 5,5 C 91 % 1002,1 hPa 0,0 l/m 0,6 km/h (0 Bft) O-SO 117 0 min 0,000 mm 0,0 UV-I 9 W/m 4,2 C 5,5 C 3,2 km/h (1 Bft)
03.11.2012 08:25 5,4 C 92 % 1002,0 hPa 0,0 l/m 0,4 km/h (0 Bft) O-SO 118 0 min 0,000 mm 0,0 UV-I 11 W/m 4,2 C 5,4 C 3,2 km/h (1 Bft)
03.11.2012 08:30 5,4 C 92 % 1002,0 hPa 0,0 l/m 0,9 km/h (0 Bft) O 90 0 min 0,000 mm 0,0 UV-I 12 W/m 4,2 C 5,4 C 8,0 km/h (2 Bft)
03.11.2012 08:35 5,5 C 92 % 1001,9 hPa 0,0 l/m 0,9 km/h (0 Bft) O-SO 120 0 min 0,000 mm 0,0 UV-I 18 W/m 4,3 C 5,5 C 3,2 km/h (1 Bft)
03.11.2012 08:40 5,6 C 92 % 1002,1 hPa 0,0 l/m 1,9 km/h (1 Bft) NW 309 0 min 0,000 mm 0,0 UV-I 19 W/m 4,4 C 5,6 C 6,4 km/h (2 Bft)
03.11.2012 08:45 5,7 C 92 % 1002,5 hPa 0,0 l/m 2,6 km/h (1 Bft) O 90 0 min 0,000 mm 0,0 UV-I 14 W/m 4,5 C 5,7 C 11,3 km/h (2 Bft)
03.11.2012 08:50 5,8 C 91 % 1002,7 hPa 0,0 l/m 6,1 km/h (2 Bft) S-SO 151 0 min 0,000 mm 0,0 UV-I 16 W/m 4,4 C 5,8 C 14,5 km/h (3 Bft)
03.11.2012 08:55 5,9 C 91 % 1002,4 hPa 0,0 l/m 2,7 km/h (1 Bft) O 87 0 min 0,000 mm 0,0 UV-I 14 W/m 4,5 C 5,9 C 6,4 km/h (2 Bft)
03.11.2012 09:00 5,9 C 91 % 1002,3 hPa 0,2 l/m 1,5 km/h (1 Bft) S-SO 163 0 min 0,000 mm 0,0 UV-I 25 W/m 4,5 C 5,9 C 6,4 km/h (2 Bft)
03.11.2012 09:05 5,9 C 91 % 1002,2 hPa 0,0 l/m 1,9 km/h (1 Bft) O-SO 105 0 min 0,000 mm 0,0 UV-I 32 W/m 4,5 C 5,9 C 4,8 km/h (1 Bft)
03.11.2012 09:10 5,9 C 92 % 1002,4 hPa 0,0 l/m 3,1 km/h (1 Bft) S-SO 159 0 min 0,000 mm 0,0 UV-I 30 W/m 4,7 C 5,9 C 12,9 km/h (3 Bft)
03.11.2012 09:15 5,9 C 92 % 1002,6 hPa 0,0 l/m 1,2 km/h (1 Bft) SW 214 0 min 0,000 mm 0,0 UV-I 23 W/m 4,7 C 5,9 C 6,4 km/h (2 Bft)
03.11.2012 09:20 6,0 C 92 % 1002,6 hPa 0,2 l/m 3,8 km/h (1 Bft) S 186 0 min 0,000 mm 0,0 UV-I 25 W/m 4,8 C 6,0 C 8,0 km/h (2 Bft)
03.11.2012 09:25 6,1 C 92 % 1002,6 hPa 0,0 l/m 1,1 km/h (1 Bft) W-SW 248 0 min 0,000 mm 0,0 UV-I 35 W/m 4,9 C 6,1 C 4,8 km/h (1 Bft)
03.11.2012 09:30 6,1 C 92 % 1002,5 hPa 0,2 l/m 3,1 km/h (1 Bft) S-SW 200 0 min 0,000 mm 0,0 UV-I 39 W/m 4,9 C 6,1 C 11,3 km/h (2 Bft)
03.11.2012 09:35 6,2 C 92 % 1002,6 hPa 0,2 l/m 3,2 km/h (1 Bft) S-SW 207 0 min 0,000 mm 0,0 UV-I 39 W/m 5,0 C 6,2 C 6,4 km/h (2 Bft)
03.11.2012 09:40 6,2 C 93 % 1002,5 hPa 0,2 l/m 3,4 km/h (1 Bft) S-SO 153 0 min 0,000 mm 0,0 UV-I 51 W/m 5,2 C 6,2 C 8,0 km/h (2 Bft)
03.11.2012 09:45 6,2 C 92 % 1002,2 hPa 0,0 l/m 2,3 km/h (1 Bft) W-NW 299 0 min 0,000 mm 0,0 UV-I 51 W/m 5,0 C 6,2 C 8,0 km/h (2 Bft)
03.11.2012 09:50 6,2 C 92 % 1002,1 hPa 0,0 l/m 1,4 km/h (1 Bft) S-SO 149 0 min 0,000 mm 0,0 UV-I 49 W/m 5,0 C 6,2 C 4,8 km/h (1 Bft)
03.11.2012 09:55 6,2 C 92 % 1002,0 hPa 0,0 l/m 2,6 km/h (1 Bft) O-SO 107 0 min 0,000 mm 0,0 UV-I 62 W/m 5,0 C 6,2 C 6,4 km/h (2 Bft)
03.11.2012 10:00 6,2 C 92 % 1002,0 hPa 0,0 l/m 2,8 km/h (1 Bft) S-SO 156 0 min 0,000 mm 0,0 UV-I 53 W/m 5,0 C 6,2 C 6,4 km/h (2 Bft)
03.11.2012 10:05 6,2 C 92 % 1002,0 hPa 0,2 l/m 0,9 km/h (0 Bft) O 101 0 min 0,025 mm 0,0 UV-I 39 W/m 5,0 C 6,2 C 4,8 km/h (1 Bft)
03.11.2012 10:10 6,2 C 92 % 1002,0 hPa 0,0 l/m 2,5 km/h (1 Bft) O-SO 120 0 min 0,000 mm 0,0 UV-I 46 W/m 5,0 C 6,2 C 6,4 km/h (2 Bft)
03.11.2012 10:15 6,2 C 92 % 1001,7 hPa 0,2 l/m 2,4 km/h (1 Bft) O-SO 111 0 min 0,000 mm 0,0 UV-I 42 W/m 5,0 C 6,2 C 6,4 km/h (2 Bft)
03.11.2012 10:20 6,2 C 91 % 1001,6 hPa 0,0 l/m 6,8 km/h (2 Bft) O 82 0 min 0,000 mm 0,0 UV-I 62 W/m 4,8 C 5,9 C 14,5 km/h (3 Bft)
03.11.2012 10:25 6,2 C 91 % 1001,4 hPa 0,0 l/m 6,9 km/h (2 Bft) O-SO 111 0 min 0,000 mm 0,0 UV-I 42 W/m 4,8 C 5,8 C 11,3 km/h (2 Bft)
03.11.2012 10:30 6,2 C 91 % 1001,7 hPa 0,0 l/m 2,4 km/h (1 Bft) O 92 0 min 0,000 mm 0,0 UV-I 30 W/m 4,8 C 6,2 C 11,3 km/h (2 Bft)
03.11.2012 10:35 6,2 C 92 % 1001,5 hPa 0,0 l/m 3,7 km/h (1 Bft) O-NO 65 0 min 0,000 mm 0,0 UV-I 33 W/m 5,0 C 6,2 C 8,0 km/h (2 Bft)
03.11.2012 10:40 6,2 C 92 % 1001,0 hPa 0,2 l/m 5,0 km/h (1 Bft) NO 49 0 min 0,000 mm 0,5 UV-I 105 W/m 5,0 C 6,2 C 12,9 km/h (3 Bft)
03.11.2012 10:45 6,3 C 92 % 1000,8 hPa 0,2 l/m 4,2 km/h (1 Bft) NO 43 0 min 0,000 mm 0,5 UV-I 102 W/m 5,1 C 6,3 C 11,3 km/h (2 Bft)
03.11.2012 10:50 6,3 C 93 % 1000,8 hPa 0,0 l/m 5,8 km/h (2 Bft) O 80 0 min 0,000 mm 0,0 UV-I 67 W/m 5,3 C 6,3 C 16,1 km/h (3 Bft)
03.11.2012 10:55 6,4 C 93 % 1000,9 hPa 0,0 l/m 6,7 km/h (2 Bft) O-NO 65 0 min 0,000 mm 0,0 UV-I 39 W/m 5,4 C 6,2 C 12,9 km/h (3 Bft)
03.11.2012 11:00 6,4 C 93 % 1000,9 hPa 0,0 l/m 7,1 km/h (2 Bft) O 90 0 min 0,000 mm 0,0 UV-I 42 W/m 5,4 C 5,8 C 12,9 km/h (3 Bft)
03.11.2012 11:05 6,4 C 93 % 1000,8 hPa 0,0 l/m 6,3 km/h (2 Bft) O 88 0 min 0,026 mm 0,0 UV-I 30 W/m 5,4 C 6,4 C 14,5 km/h (3 Bft)
03.11.2012 11:10 6,4 C 93 % 1000,7 hPa 0,0 l/m 6,5 km/h (2 Bft) O-SO 108 0 min 0,000 mm 0,0 UV-I 21 W/m 5,4 C 6,3 C 12,9 km/h (3 Bft)
03.11.2012 11:15 6,4 C 93 % 1000,7 hPa 0,2 l/m 6,9 km/h (2 Bft) O-SO 118 0 min 0,000 mm 0,0 UV-I 12 W/m 5,4 C 6,0 C 12,9 km/h (3 Bft)
03.11.2012 11:20 6,4 C 93 % 1000,7 hPa 0,2 l/m 6,6 km/h (2 Bft) O 95 0 min 0,000 mm 0,0 UV-I 11 W/m 5,4 C 6,3 C 16,1 km/h (3 Bft)
03.11.2012 11:25 6,4 C 93 % 1000,6 hPa 0,4 l/m 8,5 km/h (2 Bft) O-SO 103 0 min 0,000 mm 0,0 UV-I 12 W/m 5,4 C 4,7 C 16,1 km/h (3 Bft)
03.11.2012 11:30 6,4 C 93 % 1000,5 hPa 0,6 l/m 5,7 km/h (1 Bft) O 81 0 min 0,000 mm 0,0 UV-I 14 W/m 5,4 C 6,4 C 12,9 km/h (3 Bft)
03.11.2012 11:35 6,4 C 93 % 1000,4 hPa 0,4 l/m 7,6 km/h (2 Bft) O-SO 121 0 min 0,000 mm 0,0 UV-I 18 W/m 5,4 C 5,4 C 14,5 km/h (3 Bft)
03.11.2012 11:40 6,4 C 93 % 1000,1 hPa 0,6 l/m 8,0 km/h (2 Bft) O-SO 107 0 min 0,000 mm 0,0 UV-I 18 W/m 5,4 C 5,1 C 14,5 km/h (3 Bft)
03.11.2012 11:45 6,4 C 93 % 1000,0 hPa 0,4 l/m 8,5 km/h (2 Bft) O 96 0 min 0,000 mm 0,0 UV-I 19 W/m 5,4 C 4,7 C 16,1 km/h (3 Bft)
03.11.2012 11:50 6,4 C 93 % 999,8 hPa 0,4 l/m 9,9 km/h (2 Bft) O-SO 117 0 min 0,000 mm 0,0 UV-I 47 W/m 5,4 C 3,7 C 17,7 km/h (3 Bft)
03.11.2012 11:55 6,4 C 93 % 999,7 hPa 0,2 l/m 9,6 km/h (2 Bft) O 93 0 min 0,000 mm 0,0 UV-I 49 W/m 5,4 C 3,9 C 27,4 km/h (4 Bft)
03.11.2012 12:00 6,4 C 93 % 999,5 hPa 0,2 l/m 12,0 km/h (2 Bft) O 89 0 min 0,000 mm 0,5 UV-I 74 W/m 5,4 C 2,4 C 22,5 km/h (4 Bft)
03.11.2012 12:05 6,3 C 93 % 999,3 hPa 0,2 l/m 9,8 km/h (2 Bft) O 90 0 min 0,025 mm 0,0 UV-I 46 W/m 5,3 C 3,6 C 17,7 km/h (3 Bft)
03.11.2012 12:10 6,3 C 93 % 999,3 hPa 0,0 l/m 9,2 km/h (2 Bft) O-SO 115 0 min 0,000 mm 0,0 UV-I 32 W/m 5,3 C 4,1 C 14,5 km/h (3 Bft)
03.11.2012 12:15 6,3 C 93 % 999,0 hPa 0,0 l/m 9,7 km/h (2 Bft) O 100 0 min 0,000 mm 0,0 UV-I 46 W/m 5,3 C 3,7 C 17,7 km/h (3 Bft)
03.11.2012 12:20 6,3 C 93 % 999,0 hPa 0,2 l/m 8,0 km/h (2 Bft) SO 134 0 min 0,000 mm 0,0 UV-I 37 W/m 5,3 C 5,0 C 16,1 km/h (3 Bft)
03.11.2012 12:25 6,3 C 93 % 999,2 hPa 0,2 l/m 9,9 km/h (2 Bft) SO 130 0 min 0,000 mm 0,0 UV-I 25 W/m 5,3 C 3,6 C 22,5 km/h (4 Bft)
03.11.2012 12:30 6,3 C 93 % 999,1 hPa 0,2 l/m 8,7 km/h (2 Bft) SO 142 0 min 0,000 mm 0,0 UV-I 28 W/m 5,3 C 4,4 C 17,7 km/h (3 Bft)
03.11.2012 12:35 6,3 C 93 % 999,1 hPa 0,2 l/m 4,7 km/h (1 Bft) O 85 0 min 0,000 mm 0,0 UV-I 33 W/m 5,3 C 6,3 C 11,3 km/h (2 Bft)
03.11.2012 12:40 6,2 C 93 % 999,0 hPa 0,2 l/m 5,0 km/h (1 Bft) O 95 0 min 0,000 mm 0,0 UV-I 26 W/m 5,2 C 6,2 C 11,3 km/h (2 Bft)
03.11.2012 12:45 6,3 C 93 % 999,0 hPa 0,2 l/m 3,1 km/h (1 Bft) O 94 0 min 0,000 mm 0,0 UV-I 19 W/m 5,3 C 6,3 C 9,7 km/h (2 Bft)
03.11.2012 12:50 6,3 C 94 % 998,9 hPa 0,2 l/m 4,1 km/h (1 Bft) O 82 0 min 0,000 mm 0,0 UV-I 18 W/m 5,4 C 6,3 C 11,3 km/h (2 Bft)
03.11.2012 12:55 6,3 C 94 % 998,8 hPa 0,2 l/m 2,0 km/h (1 Bft) N-NO 32 0 min 0,000 mm 0,0 UV-I 14 W/m 5,4 C 6,3 C 6,4 km/h (2 Bft)
03.11.2012 13:00 6,3 C 94 % 998,7 hPa 0,2 l/m 3,3 km/h (1 Bft) NO 54 0 min 0,000 mm 0,0 UV-I 33 W/m 5,4 C 6,3 C 6,4 km/h (2 Bft)
03.11.2012 13:05 6,4 C 94 % 998,5 hPa 0,2 l/m 2,3 km/h (1 Bft) O-NO 61 0 min 0,026 mm 0,0 UV-I 28 W/m 5,5 C 6,4 C 4,8 km/h (1 Bft)
03.11.2012 13:10 6,4 C 94 % 998,5 hPa 0,2 l/m 3,3 km/h (1 Bft) O-NO 69 0 min 0,000 mm 0,0 UV-I 21 W/m 5,5 C 6,4 C 9,7 km/h (2 Bft)
03.11.2012 13:15 6,3 C 94 % 998,4 hPa 0,0 l/m 3,2 km/h (1 Bft) NO 48 0 min 0,000 mm 0,0 UV-I 28 W/m 5,4 C 6,3 C 8,0 km/h (2 Bft)
03.11.2012 13:20 6,4 C 94 % 998,1 hPa 0,0 l/m 2,8 km/h (1 Bft) N-NO 26 0 min 0,000 mm 0,0 UV-I 37 W/m 5,5 C 6,4 C 6,4 km/h (2 Bft)
03.11.2012 13:25 6,4 C 95 % 997,9 hPa 0,0 l/m 1,8 km/h (1 Bft) N-NO 27 0 min 0,000 mm 0,0 UV-I 30 W/m 5,7 C 6,4 C 4,8 km/h (1 Bft)
03.11.2012 13:30 6,6 C 95 % 997,9 hPa 0,2 l/m 2,1 km/h (1 Bft) NW 311 0 min 0,000 mm 0,0 UV-I 14 W/m 5,9 C 6,6 C 4,8 km/h (1 Bft)
03.11.2012 13:35 6,6 C 95 % 998,7 hPa 0,6 l/m 5,8 km/h (2 Bft) W-NW 298 0 min 0,000 mm 0,0 UV-I 9 W/m 5,9 C 6,6 C 16,1 km/h (3 Bft)
03.11.2012 13:40 6,6 C 95 % 998,7 hPa 0,8 l/m 3,5 km/h (1 Bft) NW 317 0 min 0,000 mm 0,0 UV-I 18 W/m 5,9 C 6,6 C 11,3 km/h (2 Bft)
03.11.2012 13:45 6,6 C 95 % 998,9 hPa 0,2 l/m 0,7 km/h (0 Bft) NW 306 0 min 0,000 mm 0,0 UV-I 11 W/m 5,9 C 6,6 C 3,2 km/h (1 Bft)
03.11.2012 13:50 6,6 C 95 % 999,1 hPa 0,6 l/m 0,0 km/h (0 Bft) NW 306 0 min 0,000 mm 0,0 UV-I 7 W/m 5,9 C 6,6 C 1,6 km/h (1 Bft)
03.11.2012 13:55 6,6 C 95 % 999,3 hPa 0,6 l/m 1,5 km/h (1 Bft) W-NW 302 0 min 0,000 mm 0,0 UV-I 11 W/m 5,9 C 6,6 C 4,8 km/h (1 Bft)
03.11.2012 14:00 6,6 C 95 % 999,1 hPa 0,6 l/m 1,0 km/h (0 Bft) S-SO 155 0 min 0,000 mm 0,0 UV-I 18 W/m 5,9 C 6,6 C 3,2 km/h (1 Bft)
03.11.2012 14:05 6,6 C 95 % 998,8 hPa 0,4 l/m 2,6 km/h (1 Bft) NO 49 0 min 0,000 mm 0,0 UV-I 12 W/m 5,9 C 6,6 C 6,4 km/h (2 Bft)
03.11.2012 14:10 6,6 C 95 % 998,4 hPa 0,2 l/m 3,3 km/h (1 Bft) O 94 0 min 0,000 mm 0,0 UV-I 14 W/m 5,9 C 6,6 C 8,0 km/h (2 Bft)
03.11.2012 14:15 6,5 C 95 % 998,7 hPa 0,2 l/m 2,8 km/h (1 Bft) O-SO 104 0 min 0,000 mm 0,0 UV-I 25 W/m 5,8 C 6,5 C 6,4 km/h (2 Bft)
03.11.2012 14:20 6,5 C 95 % 998,7 hPa 0,0 l/m 2,4 km/h (1 Bft) O 82 0 min 0,000 mm 0,0 UV-I 62 W/m 5,8 C 6,5 C 8,0 km/h (2 Bft)
03.11.2012 14:25 6,6 C 95 % 998,5 hPa 0,0 l/m 2,8 km/h (1 Bft) NO 48 0 min 0,000 mm 0,0 UV-I 90 W/m 5,9 C 6,6 C 4,8 km/h (1 Bft)
03.11.2012 14:30 6,8 C 95 % 998,2 hPa 0,0 l/m 3,3 km/h (1 Bft) NO 55 0 min 0,000 mm 0,5 UV-I 149 W/m 6,1 C 6,8 C 6,4 km/h (2 Bft)
03.11.2012 14:35 7,2 C 96 % 998,3 hPa 0,0 l/m 0,4 km/h (0 Bft) NO 55 0 min 0,000 mm 0,5 UV-I 105 W/m 6,6 C 7,2 C 3,2 km/h (1 Bft)
03.11.2012 14:40 7,3 C 96 % 998,2 hPa 0,0 l/m 0,1 km/h (0 Bft) NO 55 0 min 0,000 mm 0,5 UV-I 88 W/m 6,7 C 7,3 C 1,6 km/h (1 Bft)
03.11.2012 14:45 7,4 C 96 % 998,3 hPa 0,0 l/m 0,0 km/h (0 Bft) NO 55 0 min 0,000 mm 0,5 UV-I 107 W/m 6,8 C 7,4 C 0,0 km/h (0 Bft)
03.11.2012 14:50 7,5 C 96 % 998,5 hPa 0,0 l/m 0,1 km/h (0 Bft) S-SO 159 0 min 0,000 mm 0,0 UV-I 109 W/m 6,9 C 7,5 C 1,6 km/h (1 Bft)
03.11.2012 14:55 7,6 C 96 % 998,6 hPa 0,0 l/m 0,9 km/h (0 Bft) NO 56 0 min 0,000 mm 0,0 UV-I 67 W/m 7,0 C 7,6 C 4,8 km/h (1 Bft)
03.11.2012 15:00 7,7 C 95 % 998,6 hPa 0,0 l/m 0,6 km/h (0 Bft) NO 56 0 min 0,000 mm 0,0 UV-I 54 W/m 7,0 C 7,7 C 3,2 km/h (1 Bft)
03.11.2012 15:05 7,8 C 96 % 998,8 hPa 0,0 l/m 0,1 km/h (0 Bft) NO 56 0 min 0,025 mm 0,0 UV-I 30 W/m 7,2 C 7,8 C 1,6 km/h (1 Bft)
03.11.2012 15:10 7,8 C 96 % 998,9 hPa 0,0 l/m 0,0 km/h (0 Bft) NO 56 0 min 0,000 mm 0,0 UV-I 39 W/m 7,2 C 7,8 C 1,6 km/h (1 Bft)
03.11.2012 15:15 7,9 C 95 % 999,0 hPa 0,0 l/m 0,9 km/h (0 Bft) NW 306 0 min 0,000 mm 0,0 UV-I 21 W/m 7,1 C 7,9 C 3,2 km/h (1 Bft)
03.11.2012 15:20 7,9 C 95 % 999,1 hPa 0,0 l/m 1,2 km/h (1 Bft) S 188 0 min 0,000 mm 0,0 UV-I 18 W/m 7,1 C 7,9 C 3,2 km/h (1 Bft)
03.11.2012 15:25 7,9 C 95 % 999,1 hPa 0,2 l/m 1,1 km/h (1 Bft) W-SW 256 0 min 0,000 mm 0,0 UV-I 33 W/m 7,1 C 7,9 C 4,8 km/h (1 Bft)
03.11.2012 15:30 8,0 C 95 % 999,2 hPa 0,0 l/m 1,2 km/h (1 Bft) W-SW 258 0 min 0,000 mm 0,0 UV-I 37 W/m 7,2 C 8,0 C 4,8 km/h (1 Bft)
03.11.2012 15:35 8,2 C 95 % 999,4 hPa 0,0 l/m 2,2 km/h (1 Bft) W-NW 301 0 min 0,000 mm 0,0 UV-I 37 W/m 7,4 C 8,2 C 6,4 km/h (2 Bft)
03.11.2012 15:40 8,3 C 95 % 999,5 hPa 0,0 l/m 3,0 km/h (1 Bft) W-SW 256 0 min 0,000 mm 0,0 UV-I 40 W/m 7,5 C 8,3 C 8,0 km/h (2 Bft)
03.11.2012 15:45 8,5 C 95 % 999,8 hPa 0,0 l/m 4,5 km/h (1 Bft) W-NW 286 0 min 0,000 mm 0,0 UV-I 33 W/m 7,7 C 8,5 C 9,7 km/h (2 Bft)
03.11.2012 15:50 8,6 C 95 % 999,7 hPa 0,0 l/m 3,4 km/h (1 Bft) W 259 0 min 0,000 mm 0,0 UV-I 67 W/m 7,8 C 8,6 C 9,7 km/h (2 Bft)
03.11.2012 15:55 9,0 C 90 % 999,7 hPa 0,0 l/m 11,5 km/h (2 Bft) W-NW 288 5 min 0,000 mm 0,0 UV-I 93 W/m 7,4 C 5,6 C 24,1 km/h (4 Bft)
03.11.2012 16:00 9,1 C 89 % 999,6 hPa 0,0 l/m 10,0 km/h (2 Bft) W 267 0 min 0,000 mm 0,0 UV-I 19 W/m 7,4 C 6,6 C 17,7 km/h (3 Bft)
03.11.2012 16:05 9,0 C 90 % 999,9 hPa 0,0 l/m 7,6 km/h (2 Bft) W-NW 284 0 min 0,025 mm 0,0 UV-I 12 W/m 7,4 C 8,1 C 16,1 km/h (3 Bft)
03.11.2012 16:10 8,9 C 90 % 1000,2 hPa 0,0 l/m 8,9 km/h (2 Bft) W-NW 290 0 min 0,000 mm 0,0 UV-I 18 W/m 7,4 C 7,1 C 19,3 km/h (3 Bft)
03.11.2012 16:15 8,8 C 89 % 1000,4 hPa 0,0 l/m 8,3 km/h (2 Bft) W-SW 245 0 min 0,000 mm 0,0 UV-I 12 W/m 7,1 C 7,4 C 22,5 km/h (4 Bft)
03.11.2012 16:20 8,8 C 88 % 1000,5 hPa 0,0 l/m 10,2 km/h (2 Bft) N-NW 336 0 min 0,000 mm 0,0 UV-I 18 W/m 6,9 C 6,1 C 20,9 km/h (4 Bft)
03.11.2012 16:25 8,7 C 87 % 1000,5 hPa 0,0 l/m 11,5 km/h (2 Bft) W-NW 302 0 min 0,000 mm 0,0 UV-I 32 W/m 6,7 C 5,3 C 24,1 km/h (4 Bft)
03.11.2012 16:30 8,6 C 87 % 1000,6 hPa 0,0 l/m 11,2 km/h (2 Bft) W 279 0 min 0,000 mm 0,0 UV-I 12 W/m 6,6 C 5,3 C 24,1 km/h (4 Bft)
03.11.2012 16:35 8,5 C 87 % 1000,5 hPa 0,0 l/m 7,7 km/h (2 Bft) W 276 0 min 0,000 mm 0,0 UV-I 9 W/m 6,5 C 7,5 C 14,5 km/h (3 Bft)
03.11.2012 16:40 8,4 C 87 % 1000,6 hPa 0,0 l/m 6,4 km/h (2 Bft) W-NW 288 0 min 0,000 mm 0,0 UV-I 7 W/m 6,4 C 8,4 C 12,9 km/h (3 Bft)
03.11.2012 16:45 8,3 C 87 % 1000,7 hPa 0,0 l/m 6,4 km/h (2 Bft) W-SW 242 0 min 0,000 mm 0,0 UV-I 5 W/m 6,3 C 8,3 C 12,9 km/h (3 Bft)
03.11.2012 16:50 8,2 C 87 % 1000,9 hPa 0,0 l/m 4,9 km/h (1 Bft) W-SW 258 0 min 0,000 mm 0,0 UV-I 5 W/m 6,2 C 8,2 C 11,3 km/h (2 Bft)
03.11.2012 16:55 8,1 C 87 % 1001,0 hPa 0,0 l/m 4,3 km/h (1 Bft) W 269 0 min 0,000 mm 0,0 UV-I 0 W/m 6,1 C 8,1 C 12,9 km/h (3 Bft)
03.11.2012 17:00 8,0 C 87 % 1001,0 hPa 0,0 l/m 4,7 km/h (1 Bft) W-NW 288 0 min 0,000 mm 0,0 UV-I 0 W/m 6,0 C 8,0 C 9,7 km/h (2 Bft)
03.11.2012 17:05 7,9 C 88 % 1001,3 hPa 0,0 l/m 0,7 km/h (0 Bft) W-NW 288 0 min 0,026 mm 0,0 UV-I 0 W/m 6,0 C 7,9 C 3,2 km/h (1 Bft)
03.11.2012 17:10 7,8 C 89 % 1001,3 hPa 0,0 l/m 0,2 km/h (0 Bft) W-NW 283 0 min 0,000 mm 0,0 UV-I 0 W/m 6,1 C 7,8 C 3,2 km/h (1 Bft)
03.11.2012 17:15 7,6 C 89 % 1001,4 hPa 0,0 l/m 1,0 km/h (0 Bft) W-NW 285 0 min 0,000 mm 0,0 UV-I 0 W/m 5,9 C 7,6 C 6,4 km/h (2 Bft)
03.11.2012 17:20 7,5 C 89 % 1001,5 hPa 0,0 l/m 1,0 km/h (0 Bft) W 267 0 min 0,000 mm 0,0 UV-I 0 W/m 5,8 C 7,5 C 4,8 km/h (1 Bft)
03.11.2012 17:25 7,5 C 90 % 1001,4 hPa 0,0 l/m 1,4 km/h (1 Bft) W 281 0 min 0,000 mm 0,0 UV-I 0 W/m 6,0 C 7,5 C 6,4 km/h (2 Bft)
03.11.2012 17:30 7,4 C 90 % 1001,3 hPa 0,0 l/m 0,1 km/h (0 Bft) S-SO 157 0 min 0,000 mm 0,0 UV-I 0 W/m 5,9 C 7,4 C 3,2 km/h (1 Bft)
03.11.2012 17:35 7,3 C 90 % 1001,3 hPa 0,0 l/m 1,8 km/h (1 Bft) W-SW 240 0 min 0,000 mm 0,0 UV-I 0 W/m 5,8 C 7,3 C 6,4 km/h (2 Bft)
03.11.2012 17:40 7,3 C 90 % 1001,5 hPa 0,0 l/m 0,4 km/h (0 Bft) N-NW 331 0 min 0,000 mm 0,0 UV-I 0 W/m 5,8 C 7,3 C 3,2 km/h (1 Bft)
03.11.2012 17:45 7,2 C 90 % 1001,5 hPa 0,0 l/m 2,4 km/h (1 Bft) NW 304 0 min 0,000 mm 0,0 UV-I 0 W/m 5,7 C 7,2 C 4,8 km/h (1 Bft)
03.11.2012 17:50 7,2 C 90 % 1001,5 hPa 0,0 l/m 1,6 km/h (1 Bft) W-NW 286 0 min 0,000 mm 0,0 UV-I 0 W/m 5,7 C 7,2 C 9,7 km/h (2 Bft)
03.11.2012 17:55 7,3 C 90 % 1001,9 hPa 0,0 l/m 2,7 km/h (1 Bft) W 276 0 min 0,000 mm 0,0 UV-I 0 W/m 5,8 C 7,3 C 8,0 km/h (2 Bft)
03.11.2012 18:00 7,4 C 90 % 1001,8 hPa 0,0 l/m 0,2 km/h (0 Bft) W 276 0 min 0,000 mm 0,0 UV-I 0 W/m 5,9 C 7,4 C 3,2 km/h (1 Bft)
03.11.2012 18:05 7,3 C 90 % 1002,4 hPa 0,0 l/m 0,6 km/h (0 Bft) W 270 0 min 0,000 mm 0,0 UV-I 0 W/m 5,8 C 7,3 C 3,2 km/h (1 Bft)
03.11.2012 18:10 7,3 C 90 % 1002,2 hPa 0,0 l/m 0,2 km/h (0 Bft) N-NW 334 0 min 0,000 mm 0,0 UV-I 0 W/m 5,8 C 7,3 C 3,2 km/h (1 Bft)
03.11.2012 18:15 7,2 C 90 % 1002,2 hPa 0,0 l/m 0,2 km/h (0 Bft) N-NW 334 0 min 0,000 mm 0,0 UV-I 0 W/m 5,7 C 7,2 C 3,2 km/h (1 Bft)
03.11.2012 18:20 7,1 C 90 % 1002,3 hPa 0,0 l/m 0,8 km/h (0 Bft) W-NW 301 0 min 0,000 mm 0,0 UV-I 0 W/m 5,6 C 7,1 C 4,8 km/h (1 Bft)
03.11.2012 18:25 7,1 C 90 % 1002,4 hPa 0,0 l/m 1,6 km/h (1 Bft) W 267 0 min 0,000 mm 0,0 UV-I 0 W/m 5,6 C 7,1 C 4,8 km/h (1 Bft)
03.11.2012 18:30 7,3 C 90 % 1002,4 hPa 0,0 l/m 0,6 km/h (0 Bft) W 267 0 min 0,000 mm 0,0 UV-I 0 W/m 5,8 C 7,3 C 3,2 km/h (1 Bft)
03.11.2012 18:35 7,2 C 90 % 1002,5 hPa 0,0 l/m 0,3 km/h (0 Bft) W-NW 284 0 min 0,000 mm 0,0 UV-I 0 W/m 5,7 C 7,2 C 3,2 km/h (1 Bft)
03.11.2012 18:40 7,1 C 90 % 1002,6 hPa 0,0 l/m 0,5 km/h (0 Bft) W 275 0 min 0,000 mm 0,0 UV-I 0 W/m 5,6 C 7,1 C 4,8 km/h (1 Bft)
03.11.2012 18:45 7,1 C 90 % 1002,7 hPa 0,0 l/m 0,9 km/h (0 Bft) W-NW 298 0 min 0,000 mm 0,0 UV-I 0 W/m 5,6 C 7,1 C 4,8 km/h (1 Bft)
03.11.2012 18:50 7,0 C 90 % 1002,7 hPa 0,0 l/m 1,2 km/h (1 Bft) W-NW 294 0 min 0,000 mm 0,0 UV-I 0 W/m 5,5 C 7,0 C 8,0 km/h (2 Bft)
03.11.2012 18:55 6,9 C 90 % 1002,8 hPa 0,0 l/m 1,0 km/h (0 Bft) W-NW 294 0 min 0,000 mm 0,0 UV-I 0 W/m 5,4 C 6,9 C 4,8 km/h (1 Bft)
03.11.2012 19:00 6,9 C 90 % 1002,8 hPa 0,0 l/m 1,5 km/h (1 Bft) W-NW 288 0 min 0,000 mm 0,0 UV-I 0 W/m 5,4 C 6,9 C 4,8 km/h (1 Bft)
03.11.2012 19:05 6,9 C 90 % 1002,7 hPa 0,0 l/m 1,6 km/h (1 Bft) W 279 0 min 0,000 mm 0,0 UV-I 0 W/m 5,4 C 6,9 C 4,8 km/h (1 Bft)
03.11.2012 19:10 6,9 C 89 % 1002,5 hPa 0,0 l/m 0,7 km/h (0 Bft) W 271 0 min 0,000 mm 0,0 UV-I 0 W/m 5,2 C 6,9 C 3,2 km/h (1 Bft)
03.11.2012 19:15 6,8 C 90 % 1002,6 hPa 0,0 l/m 0,0 km/h (0 Bft) W 271 0 min 0,000 mm 0,0 UV-I 0 W/m 5,3 C 6,8 C 1,6 km/h (1 Bft)
03.11.2012 19:20 6,6 C 91 % 1002,8 hPa 0,0 l/m 0,0 km/h (0 Bft) W 271 0 min 0,000 mm 0,0 UV-I 0 W/m 5,2 C 6,6 C 0,0 km/h (0 Bft)
03.11.2012 19:25 6,3 C 91 % 1003,0 hPa 0,0 l/m 0,0 km/h (0 Bft) W 271 0 min 0,000 mm 0,0 UV-I 0 W/m 4,9 C 6,3 C 0,0 km/h (0 Bft)
03.11.2012 19:30 6,2 C 91 % 1003,0 hPa 0,0 l/m 0,2 km/h (0 Bft) W 271 0 min 0,000 mm 0,0 UV-I 0 W/m 4,8 C 6,2 C 1,6 km/h (1 Bft)
03.11.2012 19:35 6,0 C 91 % 1002,8 hPa 0,0 l/m 0,1 km/h (0 Bft) W 271 0 min 0,000 mm 0,0 UV-I 0 W/m 4,6 C 6,0 C 1,6 km/h (1 Bft)
03.11.2012 19:40 5,9 C 91 % 1002,5 hPa 0,0 l/m 0,9 km/h (0 Bft) W 271 0 min 0,000 mm 0,0 UV-I 0 W/m 4,5 C 5,9 C 1,6 km/h (1 Bft)
03.11.2012 19:45 5,8 C 92 % 1002,6 hPa 0,0 l/m 0,0 km/h (0 Bft) W 271 0 min 0,000 mm 0,0 UV-I 0 W/m 4,6 C 5,8 C 1,6 km/h (1 Bft)
03.11.2012 19:50 5,7 C 92 % 1002,9 hPa 0,0 l/m 0,4 km/h (0 Bft) W-SW 243 0 min 0,000 mm 0,0 UV-I 0 W/m 4,5 C 5,7 C 3,2 km/h (1 Bft)
03.11.2012 19:55 5,6 C 93 % 1002,7 hPa 0,0 l/m 0,0 km/h (0 Bft) W-SW 243 0 min 0,000 mm 0,0 UV-I 0 W/m 4,6 C 5,6 C 0,0 km/h (0 Bft)
03.11.2012 20:00 5,4 C 92 % 1003,1 hPa 0,0 l/m 0,2 km/h (0 Bft) W-SW 243 0 min 0,000 mm 0,0 UV-I 0 W/m 4,2 C 5,4 C 3,2 km/h (1 Bft)
03.11.2012 20:05 5,3 C 93 % 1003,3 hPa 0,0 l/m 0,1 km/h (0 Bft) W-SW 243 0 min 0,000 mm 0,0 UV-I 0 W/m 4,3 C 5,3 C 1,6 km/h (1 Bft)
03.11.2012 20:10 5,3 C 93 % 1003,2 hPa 0,0 l/m 0,0 km/h (0 Bft) W-SW 243 0 min 0,000 mm 0,0 UV-I 0 W/m 4,3 C 5,3 C 0,0 km/h (0 Bft)
03.11.2012 20:15 5,2 C 93 % 1002,9 hPa 0,0 l/m 0,3 km/h (0 Bft) NW 315 0 min 0,000 mm 0,0 UV-I 0 W/m 4,2 C 5,2 C 3,2 km/h (1 Bft)
03.11.2012 20:20 5,2 C 93 % 1003,3 hPa 0,0 l/m 0,0 km/h (0 Bft) NW 315 0 min 0,000 mm 0,0 UV-I 0 W/m 4,2 C 5,2 C 0,0 km/h (0 Bft)
03.11.2012 20:25 5,1 C 93 % 1003,8 hPa 0,0 l/m 0,7 km/h (0 Bft) W-SW 246 0 min 0,000 mm 0,0 UV-I 0 W/m 4,1 C 5,1 C 4,8 km/h (1 Bft)
03.11.2012 20:30 5,1 C 94 % 1003,5 hPa 0,0 l/m 0,1 km/h (0 Bft) W-SW 246 0 min 0,000 mm 0,0 UV-I 0 W/m 4,2 C 5,1 C 1,6 km/h (1 Bft)
03.11.2012 20:35 5,0 C 94 % 1003,5 hPa 0,0 l/m 0,0 km/h (0 Bft) W-SW 246 0 min 0,000 mm 0,0 UV-I 0 W/m 4,1 C 5,0 C 1,6 km/h (1 Bft)
03.11.2012 20:40 4,9 C 94 % 1003,5 hPa 0,0 l/m 0,1 km/h (0 Bft) W-NW 297 0 min 0,000 mm 0,0 UV-I 0 W/m 4,0 C 4,9 C 3,2 km/h (1 Bft)
03.11.2012 20:45 4,9 C 94 % 1003,5 hPa 0,0 l/m 0,0 km/h (0 Bft) W-NW 297 0 min 0,000 mm 0,0 UV-I 0 W/m 4,0 C 4,9 C 0,0 km/h (0 Bft)
03.11.2012 20:50 4,9 C 94 % 1003,8 hPa 0,0 l/m 0,0 km/h (0 Bft) W-NW 297 0 min 0,000 mm 0,0 UV-I 0 W/m 4,0 C 4,9 C 0,0 km/h (0 Bft)
03.11.2012 20:55 4,9 C 94 % 1003,8 hPa 0,0 l/m 0,1 km/h (0 Bft) W-NW 297 0 min 0,000 mm 0,0 UV-I 0 W/m 4,0 C 4,9 C 1,6 km/h (1 Bft)
03.11.2012 21:00 4,9 C 94 % 1003,7 hPa 0,0 l/m 0,0 km/h (0 Bft) W-NW 297 0 min 0,000 mm 0,0 UV-I 0 W/m 4,0 C 4,9 C 0,0 km/h (0 Bft)
03.11.2012 21:05 4,9 C 94 % 1003,6 hPa 0,0 l/m 0,0 km/h (0 Bft) W-NW 297 0 min 0,000 mm 0,0 UV-I 0 W/m 4,0 C 4,9 C 0,0 km/h (0 Bft)
03.11.2012 21:10 4,8 C 94 % 1003,7 hPa 0,0 l/m 0,0 km/h (0 Bft) W-NW 297 0 min 0,000 mm 0,0 UV-I 0 W/m 3,9 C 4,8 C 0,0 km/h (0 Bft)
03.11.2012 21:15 4,8 C 95 % 1003,6 hPa 0,0 l/m 0,0 km/h (0 Bft) W-NW 297 0 min 0,000 mm 0,0 UV-I 0 W/m 4,1 C 4,8 C 1,6 km/h (1 Bft)
03.11.2012 21:20 4,8 C 95 % 1003,3 hPa 0,0 l/m 0,0 km/h (0 Bft) W-NW 297 0 min 0,000 mm 0,0 UV-I 0 W/m 4,1 C 4,8 C 0,0 km/h (0 Bft)
03.11.2012 21:25 4,8 C 94 % 1003,7 hPa 0,0 l/m 0,1 km/h (0 Bft) W-NW 297 0 min 0,000 mm 0,0 UV-I 0 W/m 3,9 C 4,8 C 1,6 km/h (1 Bft)
03.11.2012 21:30 4,7 C 94 % 1003,7 hPa 0,0 l/m 0,0 km/h (0 Bft) W-NW 297 0 min 0,000 mm 0,0 UV-I 0 W/m 3,8 C 4,7 C 0,0 km/h (0 Bft)
03.11.2012 21:35 4,7 C 94 % 1003,7 hPa 0,0 l/m 0,0 km/h (0 Bft) W-NW 297 0 min 0,000 mm 0,0 UV-I 0 W/m 3,8 C 4,7 C 0,0 km/h (0 Bft)
03.11.2012 21:40 4,6 C 94 % 1003,7 hPa 0,0 l/m 0,0 km/h (0 Bft) W-NW 297 0 min 0,000 mm 0,0 UV-I 0 W/m 3,7 C 4,6 C 0,0 km/h (0 Bft)
03.11.2012 21:45 4,6 C 95 % 1003,9 hPa 0,0 l/m 0,0 km/h (0 Bft) W-NW 297 0 min 0,000 mm 0,0 UV-I 0 W/m 3,9 C 4,6 C 0,0 km/h (0 Bft)
03.11.2012 21:50 4,5 C 95 % 1003,9 hPa 0,0 l/m 0,0 km/h (0 Bft) W-NW 297 0 min 0,000 mm 0,0 UV-I 0 W/m 3,8 C 4,5 C 0,0 km/h (0 Bft)
03.11.2012 21:55 4,5 C 95 % 1003,9 hPa 0,0 l/m 0,0 km/h (0 Bft) W-NW 297 0 min 0,000 mm 0,0 UV-I 0 W/m 3,8 C 4,5 C 1,6 km/h (1 Bft)
03.11.2012 22:00 4,6 C 95 % 1003,9 hPa 0,0 l/m 0,0 km/h (0 Bft) W-NW 297 0 min 0,000 mm 0,0 UV-I 0 W/m 3,9 C 4,6 C 0,0 km/h (0 Bft)
03.11.2012 22:05 4,5 C 95 % 1003,9 hPa 0,0 l/m 0,0 km/h (0 Bft) W-NW 297 0 min 0,000 mm 0,0 UV-I 0 W/m 3,8 C 4,5 C 1,6 km/h (1 Bft)
03.11.2012 22:10 4,5 C 95 % 1003,9 hPa 0,0 l/m 0,0 km/h (0 Bft) W-NW 297 0 min 0,000 mm 0,0 UV-I 0 W/m 3,8 C 4,5 C 1,6 km/h (1 Bft)
03.11.2012 22:15 4,5 C 95 % 1004,1 hPa 0,0 l/m 0,0 km/h (0 Bft) W-NW 297 0 min 0,000 mm 0,0 UV-I 0 W/m 3,8 C 4,5 C 0,0 km/h (0 Bft)
03.11.2012 22:20 4,4 C 95 % 1003,9 hPa 0,0 l/m 0,0 km/h (0 Bft) W-NW 297 0 min 0,000 mm 0,0 UV-I 0 W/m 3,7 C 4,4 C 0,0 km/h (0 Bft)
03.11.2012 22:25 4,4 C 95 % 1003,9 hPa 0,0 l/m 0,3 km/h (0 Bft) W-NW 297 0 min 0,000 mm 0,0 UV-I 0 W/m 3,7 C 4,4 C 1,6 km/h (1 Bft)
03.11.2012 22:30 4,3 C 95 % 1003,7 hPa 0,0 l/m 0,2 km/h (0 Bft) W-NW 297 0 min 0,000 mm 0,0 UV-I 0 W/m 3,6 C 4,3 C 1,6 km/h (1 Bft)
03.11.2012 22:35 4,3 C 95 % 1003,5 hPa 0,0 l/m 0,0 km/h (0 Bft) W-NW 297 0 min 0,000 mm 0,0 UV-I 0 W/m 3,6 C 4,3 C 1,6 km/h (1 Bft)
03.11.2012 22:40 4,3 C 95 % 1003,5 hPa 0,0 l/m 0,0 km/h (0 Bft) W-NW 297 0 min 0,000 mm 0,0 UV-I 0 W/m 3,6 C 4,3 C 0,0 km/h (0 Bft)
03.11.2012 22:45 4,3 C 95 % 1003,8 hPa 0,0 l/m 0,1 km/h (0 Bft) W-NW 297 0 min 0,000 mm 0,0 UV-I 0 W/m 3,6 C 4,3 C 1,6 km/h (1 Bft)
03.11.2012 22:50 4,3 C 95 % 1004,2 hPa 0,0 l/m 0,0 km/h (0 Bft) W-NW 297 0 min 0,000 mm 0,0 UV-I 0 W/m 3,6 C 4,3 C 0,0 km/h (0 Bft)
03.11.2012 22:55 4,3 C 95 % 1004,0 hPa 0,0 l/m 0,0 km/h (0 Bft) W-NW 297 0 min 0,000 mm 0,0 UV-I 0 W/m 3,6 C 4,3 C 1,6 km/h (1 Bft)
03.11.2012 23:00 4,3 C 95 % 1003,7 hPa 0,0 l/m 0,1 km/h (0 Bft) W-NW 297 0 min 0,000 mm 0,0 UV-I 0 W/m 3,6 C 4,3 C 1,6 km/h (1 Bft)
03.11.2012 23:05 4,3 C 95 % 1004,4 hPa 0,0 l/m 0,1 km/h (0 Bft) W-NW 297 0 min 0,000 mm 0,0 UV-I 0 W/m 3,6 C 4,3 C 1,6 km/h (1 Bft)
03.11.2012 23:10 4,3 C 95 % 1004,8 hPa 0,0 l/m 0,0 km/h (0 Bft) W-NW 297 0 min 0,000 mm 0,0 UV-I 0 W/m 3,6 C 4,3 C 1,6 km/h (1 Bft)
03.11.2012 23:15 4,3 C 95 % 1004,9 hPa 0,0 l/m 0,1 km/h (0 Bft) W-NW 297 0 min 0,000 mm 0,0 UV-I 0 W/m 3,6 C 4,3 C 1,6 km/h (1 Bft)
03.11.2012 23:20 4,3 C 95 % 1005,2 hPa 0,0 l/m 0,0 km/h (0 Bft) W-NW 297 0 min 0,000 mm 0,0 UV-I 0 W/m 3,6 C 4,3 C 1,6 km/h (1 Bft)
03.11.2012 23:25 4,2 C 95 % 1005,1 hPa 0,0 l/m 0,1 km/h (0 Bft) W-NW 297 0 min 0,000 mm 0,0 UV-I 0 W/m 3,5 C 4,2 C 1,6 km/h (1 Bft)
03.11.2012 23:30 4,2 C 95 % 1005,2 hPa 0,0 l/m 0,2 km/h (0 Bft) W-NW 297 0 min 0,000 mm 0,0 UV-I 0 W/m 3,5 C 4,2 C 1,6 km/h (1 Bft)
03.11.2012 23:35 4,4 C 95 % 1005,2 hPa 0,0 l/m 1,8 km/h (1 Bft) W-SW 247 0 min 0,000 mm 0,0 UV-I 0 W/m 3,7 C 4,4 C 4,8 km/h (1 Bft)
03.11.2012 23:40 4,6 C 95 % 1005,0 hPa 0,0 l/m 0,2 km/h (0 Bft) W-SW 247 0 min 0,000 mm 0,0 UV-I 0 W/m 3,9 C 4,6 C 1,6 km/h (1 Bft)
03.11.2012 23:45 4,5 C 96 % 1004,4 hPa 0,0 l/m 0,0 km/h (0 Bft) W-SW 247 0 min 0,000 mm 0,0 UV-I 0 W/m 3,9 C 4,5 C 0,0 km/h (0 Bft)
03.11.2012 23:50 4,4 C 95 % 1004,8 hPa 0,0 l/m 1,0 km/h (0 Bft) W-NW 286 0 min 0,000 mm 0,0 UV-I 0 W/m 3,7 C 4,4 C 3,2 km/h (1 Bft)
03.11.2012 23:55 4,4 C 95 % 1004,9 hPa 0,0 l/m 0,3 km/h (0 Bft) W-NW 286 0 min 0,000 mm 0,0 UV-I 0 W/m 3,7 C 4,4 C 1,6 km/h (1 Bft)
_ Min-Zeit 23:25 16:25 13:25 - 13:50 - - - - - - 05:10 12:00 14:45
Minimum _ 4,2 C 87 % 997,9 hPa - 0,0 km/h (0 Bft) - - - - - - 3,4 C 2,4 C 0,0 km/h (0 Bft)
_ Max-Zeit 16:00 14:35 23:20 13:40 12:00 - - 15:55 11:05 10:40 14:30 15:50 15:50 11:55
Maximum _ 9,1 C 96 % 1005,2 hPa 0,8 l/m 12,0 km/h
O (2 Bft)
- - 5 min 0,026 mm 0,5 UV-I 149 W/m 7,8 C 8,6 C 27,4 km/h
O (4 Bft)
Durchschnitt _ 5,9 C 92 % 1001,9 hPa #12,4 l/m 2,6 km/h (1 Bft) W-NW - #5 min. #0,178 mm 0,5 UV-I 34 W/m 4,7 C 5,8 C 6,8 km/h (2 Bft)